OBJECT BG, 61789

Orbit data source: Space-Track

You're viewing an Uncataloged Satellite

Recently launched and/or uncataloged satellites may have evolving metadata. Metadata may include but not limited to: Owner, Maufacturer, Bus, Motor, and Mission.

OBJECT BG, 61789 is a satellite in SSO that was launched on Mon, 04 Nov 2024 UTC via a SOYUZ-2-1B launch vehicle from the Vostochny Cosmodrome (VOSTO). Unknown objects in Earth's orbit typically refer to objects detected orbiting the Earth but have not yet been identified or cataloged. These objects could be anything from previously untracked satellites, spent rocket stages, debris from satellite collisions, or even natural meteoroids temporarily captured by Earth's gravity.

Loading next visibility...
Identifier
61789, 2024-199BG
Orbit
SSO
Country
Flag of TBDTBD
Related business
Manufacturer
Sputniks
Mission
Operational Commercial Communications
Bus & Motor
CUBESAT 3U?, Unknown motor
Mass
3 kg wet, 3 kg dry
Launch date (UTC)
2024-11-04 (1 year ago)
Launch vehicle
SOYUZ-2-1B
Launch site
Vostochny Cosmodrome (VOSTO)
Object type
Unknown
Shape & HBR
Box, 0.1 m
Radar Cross Section
0.035 m², Small (<0.1 m²)

Expand to show TLE details & history
Last TLE update: 8 hours ago

TLE from 8 hours ago
0 OBJECT BG
1 61789U 24199BG  25295.16282611  .00004081  00000-0  36697-3 0  9993
2 61789  97.3401 144.4810 0006766 146.4238 213.7414 14.96153467 96421
Epoch: 2025-10-22T03:54Z
TLE epoch observation values (Epoch: 2025-10-22T03:54:28.175Z)
Latitude
-0.00008°
Longitude
55.02323°
Altitude
585.771 km
Speed
7.565 km/s
True Right ascension
09h 37m 55s
True Declination
0° 00' 00"
Sunlit
Object was in daylight at epoch
Visualization orbit readout
Latitude
Unknown
Longitude
Unknown
Altitude
Unknown
Speed
Unknown
Apparent Right ascension
Unknown
Apparent Declination
Unknown
Sunlit
N/A
Visualization observer readout
Local Sidereal Time
07:20:53
Azimuth
Unknown
Elevation
Unknown
Doppler factor
Unknown
Orbital elements
Apogee altitude
580.495 km
Perigee altitude
571.085 km
Semi-major axis
6,953.927 km
Eccentricity
0.00068
Inclination
97.3401°
RAAN
144.481°
Arg. of periapsis
146.4238°
True anomaly
213.69837°
Mean anomaly
213.7414°
Eccentric anomaly
213.71988°
Mean motion
3.74281 °/min
Orbital period
96.18 mins
BSTAR
0.00036697
Loading maneuver chart data...
Computing Atmospheric mass density...
Loading historical data...
Loading historical data...
Loading historical data...
Loading historical data...
Loading historical data...
Loading historical data...
Loading historical data...

Documentation

Showing up to 5 results
|